Regional Weather Roundup
Issued by NWS

Home | Current Version | Previous Version | Graphics & Text | Print | Product List | Glossary On
Versions: 1 2 3 4 5 6 7 8 9 10 11 12 13 14 15 16 17 18 19 20 21 22 23 24 25 26 27 28 29 30 31 32 33 34 35 36 37 38 39 40 41 42 43 44 45 46 47 48 49 50
000
ASUS43 KLMK 250202
RWRKY
KENTUCKY REGIONAL WEATHER ROUNDUP
NATIONAL WEATHER SERVICE LOUISVILLE KY
1000 PM EDT SUN SEP 24 2017

NOTE "FAIR" INDICATES FEW OR NO CLOUDS BELOW 12,000 FEET
WITH NO SIGNIFICANT WEATHER AND/OR OBSTRUCTIONS TO VISIBILITY.

KYZ001>023-026-027-061>063-070>075-250300-
WESTERN AND SOUTH CENTRAL KENTUCKY

CITY           SKY/WX    TMP DP  RH WIND       PRES   REMARKS
PADUCAH        CLEAR     72  63  73 CALM      29.99R
HENDERSON      PTCLDY    72  67  84 CALM      30.01R
OWENSBORO      PTCLDY    78  68  71 CALM      30.02R
HOPKINSVILLE   CLEAR     72  70  95 N5        30.01R
BOWLING GREEN  MOCLDY    75  71  87 CALM      30.02R
GLASGOW        NOT AVBL
$$

KYZ024-025-028>034-038-045-046-053-250300-
NORTH CENTRAL KENTUCKY

CITY           SKY/WX    TMP DP  RH WIND       PRES   REMARKS
LOUISVILLE/SDF CLOUDY    80  59  48 E3        30.02S
LOUISVILLE/LOU CLOUDY    74  63  68 CALM      30.04R
FORT KNOX      PTCLDY    69  63  81 CALM      30.02S
$$

KYZ035>037-039>044-047>052-055>060-089>105-250300-
NORTHEAST KENTUCKY

CITY           SKY/WX    TMP DP  RH WIND       PRES   REMARKS
LEXINGTON      CLOUDY    78  60  53 E6        30.06S
COVINGTON      MOCLDY    74  55  51 CALM      30.06S
FRANKFORT      CLOUDY    72  61  68 CALM      30.04R
$$

KYZ054-064>069-076>088-106>120-250300-
SOUTHEAST KENTUCKY

CITY           SKY/WX    TMP DP  RH WIND       PRES   REMARKS
JACKSON        CLEAR     72  60  66 CALM      30.08F
LONDON         CLEAR     71  66  84 CALM      30.07R
SOMERSET       NOT AVBL
MIDDLESBORO    CLEAR     67  63  85 CALM      30.09R
MONTICELLO     CLOUDY    68  66  93 W6        30.07S
$$





USA.gov is the U.S. government's official web portal to all federal, state and local government web resources and services.